Regional Weather Roundup
Issued by NWS

Home | Current Version | Previous Version | Graphics & Text | Print | Product List | Glossary On
Versions: 1 2 3 4 5 6 7 8 9 10 11 12 13 14 15 16 17 18 19 20 21 22 23 24 25 26 27 28 29 30 31 32 33 34 35 36 37 38 39 40 41 42 43 44 45 46 47 48 49 50
000
ASUS43 KBIS 220910
RWRND
NORTH DAKOTA REGIONAL WEATHER ROUNDUP
NATIONAL WEATHER SERVICE EASTERN NORTH DAKOTA/GRAND FORKS ND
400 AM CDT MON MAY 22 2017

  NOTE: "FAIR" INDICATES FEW OR NO CLOUDS BELOW 12,000 FEET WITH NO
  SIGNIFICANT WEATHER AND/OR OBSTRUCTIONS TO VISIBILITY.

NDZ001>003-009>011-017-221000-
...NORTHWEST NORTH DAKOTA...

CITY           SKY/WX    TMP DP  RH WIND       PRES   REMARKS
WILLISTON      CLOUDY    51  41  68 NW13      29.96R
MINOT          CLOUDY    47  39  74 CALM      29.92S
MINOT AFB      CLOUDY    49  38  65 CALM      29.92S
$$

NDZ018>021-031>035-040>046-221000-
...SOUTHWEST NORTH DAKOTA...

CITY           SKY/WX    TMP DP  RH WIND       PRES   REMARKS
BISMARCK       FAIR      38  34  85 E3        29.89F
DICKINSON      CLOUDY    48  43  82 NW10      29.95S
GARRISON         N/A     45  37  73 NE8       29.89F
HETTINGER      CLOUDY    49  41  74 W16G23    29.98F
$$

NDZ004>008-012>016-024-026-027-054-221000-
...NORTHEAST NORTH DAKOTA...

CITY           SKY/WX    TMP DP  RH WIND       PRES   REMARKS
GRAND FORKS    LGT RAIN  47  44  90 W10       29.84F
GRAND FORKS AF MOCLDY    46  43  89 NW8       29.85S
DEVILS LAKE    FAIR      45  42  89 NW7       29.90S
$$

NDZ022-023-025-028>030-036>039-047>053-221000-
...SOUTHEAST NORTH DAKOTA...

CITY           SKY/WX    TMP DP  RH WIND       PRES   REMARKS
JAMESTOWN      FAIR      42  39  89 NW3       29.88F
FARGO          FAIR      42  40  92 W8        29.87F
WAHPETON       FAIR      37  34  87 NW5       29.89S WCI  34
$$




USA.gov is the U.S. government's official web portal to all federal, state and local government web resources and services.